Time,TemperatureF,DewpointF,PressureIn,WindDirection,WindDirectionDegrees,WindSpeedMPH,WindSpeedGustMPH,Humidity,HourlyPrecipIn,Conditions,Clouds,dailyrainin,SoftwareType,DateUTC
2013-02-21 00:01:00,42.5,34.1,29.77,NNE,23,5.1,9.2,72,0.00,,,0.00,WUHU216HW,2013-02-21 06:01:00,
2013-02-21 00:06:00,42.7,34.3,29.76,NE,45,3.6,8.7,72,0.00,,,0.00,WUHU216HW,2013-02-21 06:06:00,
2013-02-21 00:11:00,42.7,34.0,29.76,North,0,3.8,7.8,71,0.00,,,0.00,WUHU216HW,2013-02-21 06:11:00,
2013-02-21 00:16:00,42.8,34.2,29.76,ENE,68,2.7,8.7,71,0.00,,,0.00,WUHU216HW,2013-02-21 06:16:00,
2013-02-21 00:21:00,42.8,34.2,29.75,NNE,23,4.3,8.7,71,0.00,,,0.00,WUHU216HW,2013-02-21 06:21:00,
2013-02-21 00:26:00,42.8,34.2,29.75,ENE,68,6.0,9.2,71,0.00,,,0.00,WUHU216HW,2013-02-21 06:26:00,
2013-02-21 00:31:00,43.2,34.2,29.75,NNE,23,6.9,9.2,70,0.00,,,0.00,WUHU216HW,2013-02-21 06:31:00,
2013-02-21 00:36:00,43.6,34.5,29.75,North,0,6.7,7.4,70,0.00,,,0.00,WUHU216HW,2013-02-21 06:36:00,
2013-02-21 00:41:00,43.7,34.3,29.74,ENE,68,7.4,7.4,69,0.00,,,0.00,WUHU216HW,2013-02-21 06:41:00,
2013-02-21 00:46:00,43.9,34.5,29.74,ENE,68,2.5,7.4,69,0.00,,,0.00,WUHU216HW,2013-02-21 06:46:00,
2013-02-21 00:51:00,44.1,34.2,29.74,NE,45,4.5,9.8,68,0.00,,,0.00,WUHU216HW,2013-02-21 06:51:00,
2013-02-21 00:56:00,44.1,34.2,29.74,ENE,68,6.9,9.8,68,0.00,,,0.00,WUHU216HW,2013-02-21 06:56:00,
2013-02-21 01:01:00,44.3,34.4,29.74,NNW,338,9.8,9.8,68,0.00,,,0.00,WUHU216HW,2013-02-21 07:01:00,
2013-02-21 01:06:00,44.3,34.4,29.74,NE,45,5.6,9.8,68,0.00,,,0.00,WUHU216HW,2013-02-21 07:06:00,
2013-02-21 01:11:00,44.3,34.4,29.74,ENE,68,4.5,9.8,68,0.00,,,0.00,WUHU216HW,2013-02-21 07:11:00,
2013-02-21 01:16:00,44.3,34.4,29.74,ENE,68,9.6,9.6,68,0.00,,,0.00,WUHU216HW,2013-02-21 07:16:00,
2013-02-21 01:21:00,44.5,34.2,29.74,ENE,68,5.4,10.7,67,0.00,,,0.00,WUHU216HW,2013-02-21 07:21:00,
2013-02-21 01:26:00,44.5,34.6,29.73,NE,45,3.6,10.7,68,0.00,,,0.00,WUHU216HW,2013-02-21 07:26:00,
2013-02-21 01:31:00,44.5,34.6,29.74,ENE,68,7.8,9.2,68,0.00,,,0.00,WUHU216HW,2013-02-21 07:31:00,
2013-02-21 01:36:00,44.6,34.3,29.74,East,90,10.5,10.5,67,0.00,,,0.00,WUHU216HW,2013-02-21 07:36:00,
2013-02-21 01:41:00,44.6,34.8,29.74,ESE,113,5.4,10.5,68,0.00,,,0.00,WUHU216HW,2013-02-21 07:41:00,
2013-02-21 01:46:00,44.6,34.3,29.73,NE,45,6.3,8.7,67,0.00,,,0.00,WUHU216HW,2013-02-21 07:46:00,
2013-02-21 01:51:00,44.6,34.8,29.73,ESE,113,8.1,8.7,68,0.00,,,0.00,WUHU216HW,2013-02-21 07:51:00,
2013-02-21 01:56:00,44.8,34.5,29.74,NE,45,8.7,8.7,67,0.00,,,0.00,WUHU216HW,2013-02-21 07:56:00,
2013-02-21 02:01:00,44.8,34.5,29.74,East,90,6.9,10.5,67,0.00,,,0.00,WUHU216HW,2013-02-21 08:01:00,
2013-02-21 02:06:00,44.8,34.9,29.73,ENE,68,4.0,10.5,68,0.00,,,0.00,WUHU216HW,2013-02-21 08:06:00,
2013-02-21 02:11:00,44.6,35.1,29.73,ENE,68,4.7,9.6,69,0.00,,,0.00,WUHU216HW,2013-02-21 08:11:00,
2013-02-21 02:16:00,44.6,35.1,29.72,East,90,7.2,7.2,69,0.00,,,0.00,WUHU216HW,2013-02-21 08:16:00,
2013-02-21 02:21:00,44.6,34.8,29.72,North,0,8.5,8.5,68,0.00,,,0.00,WUHU216HW,2013-02-21 08:21:00,
2013-02-21 02:26:00,44.6,34.8,29.72,NE,45,6.0,8.5,68,0.00,,,0.00,WUHU216HW,2013-02-21 08:26:00,
2013-02-21 02:31:00,44.6,34.8,29.72,ENE,68,3.4,12.1,68,0.00,,,0.00,WUHU216HW,2013-02-21 08:31:00,
2013-02-21 02:36:00,44.8,34.9,29.71,ENE,68,6.9,12.1,68,0.00,,,0.00,WUHU216HW,2013-02-21 08:36:00,
2013-02-21 02:41:00,44.8,34.9,29.72,NE,45,4.7,7.6,68,0.00,,,0.00,WUHU216HW,2013-02-21 08:41:00,
2013-02-21 02:46:00,44.8,34.9,29.71,ENE,68,8.9,8.9,68,0.00,,,0.00,WUHU216HW,2013-02-21 08:46:00,
2013-02-21 02:51:00,45.0,35.1,29.71,NE,45,5.4,8.9,68,0.00,,,0.00,WUHU216HW,2013-02-21 08:51:00,
2013-02-21 02:56:00,45.0,35.1,29.71,ENE,68,8.3,8.5,68,0.00,,,0.00,WUHU216HW,2013-02-21 08:56:00,
2013-02-21 03:01:00,45.0,35.1,29.71,East,90,7.2,8.9,68,0.00,,,0.00,WUHU216HW,2013-02-21 09:01:00,
2013-02-21 03:06:00,45.0,35.1,29.71,ENE,68,3.8,8.9,68,0.00,,,0.00,WUHU216HW,2013-02-21 09:06:00,
2013-02-21 03:11:00,45.0,35.1,29.71,ENE,68,7.2,9.4,68,0.00,,,0.00,WUHU216HW,2013-02-21 09:11:00,
2013-02-21 03:16:00,45.0,35.5,29.71,ENE,68,3.1,9.4,69,0.00,,,0.00,WUHU216HW,2013-02-21 09:16:00,
2013-02-21 03:21:00,45.0,35.5,29.72,ENE,68,7.2,8.5,69,0.00,,,0.00,WUHU216HW,2013-02-21 09:21:00,
2013-02-21 03:26:00,44.8,35.6,29.71,ENE,68,4.3,8.5,70,0.00,,,0.00,WUHU216HW,2013-02-21 09:26:00,
2013-02-21 03:31:00,44.8,35.3,29.71,NE,45,9.8,9.8,69,0.00,,,0.00,WUHU216HW,2013-02-21 09:31:00,
2013-02-21 03:36:00,44.6,35.8,29.71,East,90,5.1,9.8,71,0.00,,,0.00,WUHU216HW,2013-02-21 09:36:00,
2013-02-21 03:41:00,44.6,36.2,29.70,ENE,68,4.3,9.2,72,0.00,,,0.00,WUHU216HW,2013-02-21 09:41:00,
2013-02-21 03:46:00,44.6,35.8,29.70,ESE,113,5.4,8.9,71,0.00,,,0.00,WUHU216HW,2013-02-21 09:46:00,
2013-02-21 03:51:00,44.6,35.8,29.70,East,90,5.4,8.9,71,0.00,,,0.00,WUHU216HW,2013-02-21 09:51:00,
2013-02-21 03:56:00,44.6,36.5,29.69,ESE,113,6.5,8.9,73,0.00,,,0.00,WUHU216HW,2013-02-21 09:56:00,
2013-02-21 04:01:00,44.3,36.5,29.69,ENE,68,3.8,8.9,74,0.00,,,0.00,WUHU216HW,2013-02-21 10:01:00,
2013-02-21 04:06:00,44.1,36.4,29.69,NE,45,7.2,7.8,74,0.00,,,0.00,WUHU216HW,2013-02-21 10:06:00,
2013-02-21 04:11:00,43.9,36.8,29.69,ENE,68,7.2,7.2,76,0.00,,,0.00,WUHU216HW,2013-02-21 10:11:00,
2013-02-21 04:16:00,43.7,37.4,29.69,ENE,68,5.4,7.2,78,0.00,,,0.00,WUHU216HW,2013-02-21 10:16:00,
2013-02-21 04:21:00,43.6,37.2,29.68,ENE,68,4.3,9.6,78,0.00,,,0.00,WUHU216HW,2013-02-21 10:21:00,
2013-02-21 04:26:00,43.6,37.4,29.68,ENE,68,6.9,9.6,79,0.00,,,0.00,WUHU216HW,2013-02-21 10:26:00,
2013-02-21 04:31:00,43.6,37.2,29.67,ENE,68,6.9,8.5,78,0.00,,,0.00,WUHU216HW,2013-02-21 10:31:00,
2013-02-21 04:36:00,43.6,37.2,29.67,ENE,68,7.6,8.5,78,0.00,,,0.00,WUHU216HW,2013-02-21 10:36:00,
2013-02-21 04:41:00,43.6,37.4,29.67,ENE,68,5.6,8.7,79,0.00,,,0.00,WUHU216HW,2013-02-21 10:41:00,
2013-02-21 04:46:00,43.6,37.2,29.67,East,90,9.8,9.8,78,0.00,,,0.00,WUHU216HW,2013-02-21 10:46:00,
2013-02-21 04:51:00,43.7,37.0,29.66,ENE,68,6.9,9.8,77,0.00,,,0.00,WUHU216HW,2013-02-21 10:51:00,
2013-02-21 04:56:00,43.9,37.2,29.66,ENE,68,7.6,9.4,77,0.00,,,0.00,WUHU216HW,2013-02-21 10:56:00,
2013-02-21 05:01:00,44.1,37.4,29.66,ENE,68,7.6,9.4,77,0.00,,,0.00,WUHU216HW,2013-02-21 11:01:00,
2013-02-21 05:06:00,44.3,37.5,29.66,ESE,113,6.7,9.8,77,0.00,,,0.00,WUHU216HW,2013-02-21 11:06:00,
2013-02-21 05:11:00,44.3,37.8,29.66,NE,45,6.9,11.4,78,0.00,,,0.00,WUHU216HW,2013-02-21 11:11:00,
2013-02-21 05:16:00,43.9,37.5,29.65,ENE,68,7.2,11.4,78,0.00,,,0.00,WUHU216HW,2013-02-21 11:16:00,
2013-02-21 05:21:00,43.7,37.6,29.65,NE,45,6.9,7.2,79,0.00,,,0.00,WUHU216HW,2013-02-21 11:21:00,
2013-02-21 05:26:00,43.9,37.8,29.66,ENE,68,5.4,6.9,79,0.00,,,0.00,WUHU216HW,2013-02-21 11:26:00,
2013-02-21 05:31:00,44.1,38.0,29.65,East,90,6.3,9.4,79,0.00,,,0.00,WUHU216HW,2013-02-21 11:31:00,
2013-02-21 05:36:00,44.1,37.7,29.65,East,90,6.3,10.7,78,0.01,,,0.01,WUHU216HW,2013-02-21 11:36:00,
2013-02-21 05:41:00,44.1,37.7,29.66,East,90,6.7,11.4,78,0.01,,,0.01,WUHU216HW,2013-02-21 11:41:00,
2013-02-21 05:46:00,44.1,38.0,29.64,ENE,68,6.9,11.4,79,0.01,,,0.01,WUHU216HW,2013-02-21 11:46:00,
2013-02-21 05:51:00,43.7,38.0,29.64,SE,135,4.9,9.8,80,0.01,,,0.01,WUHU216HW,2013-02-21 11:51:00,
2013-02-21 05:56:00,43.9,38.4,29.64,ENE,68,4.3,9.8,81,0.01,,,0.01,WUHU216HW,2013-02-21 11:56:00,
2013-02-21 06:01:00,43.9,38.2,29.62,NE,45,9.2,10.1,80,0.01,,,0.01,WUHU216HW,2013-02-21 12:01:00,
2013-02-21 06:06:00,43.7,38.3,29.62,ESE,113,8.9,10.5,81,0.01,,,0.01,WUHU216HW,2013-02-21 12:06:00,
2013-02-21 06:11:00,43.9,38.4,29.63,SE,135,6.5,10.5,81,0.01,,,0.01,WUHU216HW,2013-02-21 12:11:00,
2013-02-21 06:16:00,44.1,38.6,29.63,East,90,5.6,9.8,81,0.01,,,0.01,WUHU216HW,2013-02-21 12:16:00,
2013-02-21 06:21:00,44.1,38.6,29.63,ESE,113,4.7,9.8,81,0.01,,,0.01,WUHU216HW,2013-02-21 12:21:00,
2013-02-21 06:26:00,43.9,38.8,29.64,ENE,68,8.5,8.9,82,0.01,,,0.01,WUHU216HW,2013-02-21 12:26:00,
2013-02-21 06:31:00,43.9,39.1,29.64,ESE,113,8.7,9.2,83,0.01,,,0.01,WUHU216HW,2013-02-21 12:31:00,
2013-02-21 06:36:00,43.9,39.1,29.64,ENE,68,5.4,9.8,83,0.00,,,0.01,WUHU216HW,2013-02-21 12:36:00,
2013-02-21 06:41:00,43.9,39.1,29.64,ESE,113,8.3,9.8,83,0.00,,,0.01,WUHU216HW,2013-02-21 12:41:00,
2013-02-21 06:46:00,43.9,39.4,29.63,ESE,113,7.6,8.5,84,0.01,,,0.02,WUHU216HW,2013-02-21 12:46:00,
2013-02-21 06:51:00,43.9,39.7,29.63,ESE,113,7.2,8.7,85,0.01,,,0.02,WUHU216HW,2013-02-21 12:51:00,
2013-02-21 06:56:00,43.7,39.5,29.62,ENE,68,6.3,9.2,85,0.01,,,0.02,WUHU216HW,2013-02-21 12:56:00,
2013-02-21 07:01:00,43.7,39.8,29.62,ESE,113,8.1,9.2,86,0.02,,,0.03,WUHU216HW,2013-02-21 13:01:00,
2013-02-21 07:06:00,43.6,39.6,29.62,East,90,6.9,9.4,86,0.02,,,0.03,WUHU216HW,2013-02-21 13:06:00,
2013-02-21 07:11:00,43.6,40.0,29.62,ENE,68,4.7,9.4,87,0.02,,,0.03,WUHU216HW,2013-02-21 13:11:00,
2013-02-21 07:16:00,43.6,40.0,29.62,ENE,68,6.9,8.9,87,0.02,,,0.03,WUHU216HW,2013-02-21 13:16:00,
2013-02-21 07:21:00,43.9,40.6,29.61,ESE,113,7.8,12.1,88,0.02,,,0.03,WUHU216HW,2013-02-21 13:21:00,
2013-02-21 07:26:00,44.1,40.8,29.61,ENE,68,7.6,13.2,88,0.02,,,0.03,WUHU216HW,2013-02-21 13:26:00,
2013-02-21 07:31:00,44.1,40.5,29.61,ESE,113,8.5,13.2,87,0.02,,,0.03,WUHU216HW,2013-02-21 13:31:00,
2013-02-21 07:36:00,44.3,41.0,29.61,East,90,11.2,12.1,88,0.02,,,0.03,WUHU216HW,2013-02-21 13:36:00,
2013-02-21 07:41:00,44.3,40.7,29.61,ENE,68,6.0,15.0,87,0.01,,,0.03,WUHU216HW,2013-02-21 13:41:00,
2013-02-21 07:46:00,44.3,41.0,29.61,ESE,113,12.1,15.0,88,0.01,,,0.03,WUHU216HW,2013-02-21 13:46:00,
2013-02-21 07:51:00,44.3,41.0,29.61,East,90,8.5,12.1,88,0.01,,,0.03,WUHU216HW,2013-02-21 13:51:00,
2013-02-21 07:56:00,44.5,41.1,29.60,East,90,8.3,8.9,88,0.00,,,0.03,WUHU216HW,2013-02-21 13:56:00,
2013-02-21 08:01:00,45.0,41.7,29.60,East,90,9.4,14.1,88,0.00,,,0.03,WUHU216HW,2013-02-21 14:01:00,
2013-02-21 08:06:00,45.0,42.0,29.60,ESE,113,8.9,14.1,89,0.00,,,0.03,WUHU216HW,2013-02-21 14:06:00,
2013-02-21 08:11:00,45.2,42.2,29.61,ESE,113,8.7,13.2,89,0.00,,,0.03,WUHU216HW,2013-02-21 14:11:00,
2013-02-21 08:16:00,45.4,42.7,29.61,SE,135,6.5,12.8,90,0.00,,,0.03,WUHU216HW,2013-02-21 14:16:00,
2013-02-21 08:21:00,45.7,43.0,29.61,ESE,113,9.6,13.6,90,0.00,,,0.03,WUHU216HW,2013-02-21 14:21:00,
2013-02-21 08:26:00,45.9,43.2,29.61,SE,135,10.5,13.6,90,0.00,,,0.03,WUHU216HW,2013-02-21 14:26:00,
2013-02-21 08:31:00,46.1,43.4,29.60,ESE,113,9.2,11.9,90,0.00,,,0.03,WUHU216HW,2013-02-21 14:31:00,
2013-02-21 08:36:00,46.3,43.6,29.61,East,90,8.5,11.9,90,0.00,,,0.03,WUHU216HW,2013-02-21 14:36:00,
2013-02-21 08:41:00,46.4,43.7,29.61,East,90,8.9,10.5,90,0.00,,,0.03,WUHU216HW,2013-02-21 14:41:00,
2013-02-21 08:46:00,46.6,43.9,29.61,ESE,113,8.1,10.5,90,0.00,,,0.03,WUHU216HW,2013-02-21 14:46:00,
2013-02-21 08:51:00,46.8,44.1,29.61,ESE,113,8.5,10.3,90,0.00,,,0.03,WUHU216HW,2013-02-21 14:51:00,
2013-02-21 08:56:00,47.0,44.3,29.61,ESE,113,1.1,9.6,90,0.00,,,0.03,WUHU216HW,2013-02-21 14:56:00,
2013-02-21 09:01:00,47.2,44.5,29.61,East,90,4.7,9.6,90,0.00,,,0.03,WUHU216HW,2013-02-21 15:01:00,
2013-02-21 09:06:00,47.3,44.9,29.61,SE,135,3.6,6.9,91,0.00,,,0.03,WUHU216HW,2013-02-21 15:06:00,
2013-02-21 09:11:00,47.5,45.1,29.61,SE,135,3.4,6.3,91,0.00,,,0.03,WUHU216HW,2013-02-21 15:11:00,
2013-02-21 09:16:00,47.9,45.5,29.62,SE,135,4.5,4.7,91,0.00,,,0.03,WUHU216HW,2013-02-21 15:16:00,
2013-02-21 09:21:00,48.2,45.8,29.62,ESE,113,4.5,6.7,91,0.00,,,0.03,WUHU216HW,2013-02-21 15:21:00,
2013-02-21 09:27:00,48.4,45.7,29.64,West,270,4.5,6.7,90,0.00,,,0.03,WUHU216HW,2013-02-21 15:27:00,
2013-02-21 09:32:00,48.6,45.9,29.69,WSW,248,6.9,6.9,90,0.00,,,0.03,WUHU216HW,2013-02-21 15:32:00,
2013-02-21 09:37:00,48.2,45.2,29.70,West,270,4.7,7.6,89,0.00,,,0.03,WUHU216HW,2013-02-21 15:37:00,
2013-02-21 09:42:00,48.1,44.7,29.66,NNW,338,4.3,7.6,88,0.00,,,0.03,WUHU216HW,2013-02-21 15:42:00,
2013-02-21 09:47:00,47.9,45.2,29.69,NE,45,2.5,5.6,90,0.00,,,0.03,WUHU216HW,2013-02-21 15:47:00,
2013-02-21 09:52:00,47.9,45.5,29.70,WSW,248,2.5,5.1,91,0.00,,,0.03,WUHU216HW,2013-02-21 15:52:00,
2013-02-21 09:57:00,47.7,45.3,29.70,NW,315,0.4,4.7,91,0.04,,,0.07,WUHU216HW,2013-02-21 15:57:00,
2013-02-21 10:02:00,47.9,45.5,29.68,NW,315,1.3,4.3,91,0.05,,,0.08,WUHU216HW,2013-02-21 16:02:00,
2013-02-21 10:07:00,47.9,45.5,29.68,NNW,338,0.4,3.4,91,0.06,,,0.09,WUHU216HW,2013-02-21 16:07:00,
2013-02-21 10:12:00,48.1,45.6,29.67,NNW,338,2.7,2.7,91,0.08,,,0.11,WUHU216HW,2013-02-21 16:12:00,
2013-02-21 10:17:00,48.6,46.2,29.67,NNE,23,3.8,3.8,91,0.08,,,0.11,WUHU216HW,2013-02-21 16:17:00,
2013-02-21 10:22:00,49.1,46.6,29.67,North,0,3.8,3.8,91,0.08,,,0.11,WUHU216HW,2013-02-21 16:22:00,
2013-02-21 10:27:00,49.3,46.5,29.67,NNW,338,0.9,3.8,90,0.08,,,0.11,WUHU216HW,2013-02-21 16:27:00,
2013-02-21 10:32:00,49.3,46.5,29.68,NNE,23,3.1,3.1,90,0.08,,,0.11,WUHU216HW,2013-02-21 16:32:00,
2013-02-21 10:37:00,49.3,46.5,29.67,NNW,338,1.6,4.0,90,0.08,,,0.11,WUHU216HW,2013-02-21 16:37:00,
2013-02-21 10:42:00,49.7,46.5,29.67,NW,315,2.7,4.0,89,0.08,,,0.11,WUHU216HW,2013-02-21 16:42:00,
2013-02-21 10:47:00,49.7,46.8,29.67,NNW,338,2.5,4.7,90,0.08,,,0.11,WUHU216HW,2013-02-21 16:47:00,
2013-02-21 10:52:00,49.7,46.3,29.67,NW,315,1.3,6.3,88,0.05,,,0.11,WUHU216HW,2013-02-21 16:52:00,
2013-02-21 10:57:00,49.7,46.3,29.67,NNW,338,2.9,6.3,88,0.03,,,0.11,WUHU216HW,2013-02-21 16:57:00,
2013-02-21 11:02:00,50.0,46.5,29.65,North,0,6.3,6.3,88,0.03,,,0.11,WUHU216HW,2013-02-21 17:02:00,
2013-02-21 11:07:00,50.4,46.9,29.65,North,0,3.4,6.3,88,0.02,,,0.11,WUHU216HW,2013-02-21 17:07:00,
2013-02-21 11:12:00,50.9,47.8,29.66,NNE,23,1.6,6.3,89,0.00,,,0.11,WUHU216HW,2013-02-21 17:12:00,
2013-02-21 11:17:00,51.5,48.0,29.65,NNE,23,3.4,5.4,88,0.00,,,0.11,WUHU216HW,2013-02-21 17:17:00,
2013-02-21 11:22:00,52.7,49.6,29.66,NE,45,2.5,4.7,89,0.00,,,0.11,WUHU216HW,2013-02-21 17:22:00,
2013-02-21 11:27:00,53.5,49.3,29.66,NE,45,2.2,6.7,86,0.00,,,0.11,WUHU216HW,2013-02-21 17:27:00,
2013-02-21 11:32:00,54.4,50.0,29.66,NNW,338,2.9,6.7,85,0.00,,,0.11,WUHU216HW,2013-02-21 17:32:00,
2013-02-21 11:37:00,54.7,49.3,29.66,North,0,5.8,5.8,82,0.00,,,0.11,WUHU216HW,2013-02-21 17:37:00,
2013-02-21 11:42:00,55.3,49.8,29.67,North,0,2.5,5.8,82,0.00,,,0.11,WUHU216HW,2013-02-21 17:42:00,
2013-02-21 11:47:00,55.6,49.1,29.67,ENE,68,1.8,4.9,79,0.00,,,0.11,WUHU216HW,2013-02-21 17:47:00,
2013-02-21 11:52:00,55.6,49.9,29.67,North,0,2.5,3.4,81,0.00,,,0.11,WUHU216HW,2013-02-21 17:52:00,
2013-02-21 11:57:00,55.8,50.1,29.68,NE,45,1.6,2.5,81,0.00,,,0.11,WUHU216HW,2013-02-21 17:57:00,
2013-02-21 12:02:00,56.5,50.8,29.67,NNW,338,0.7,2.9,81,0.00,,,0.11,WUHU216HW,2013-02-21 18:02:00,
2013-02-21 12:07:00,58.0,50.8,29.67,NW,315,1.8,3.4,77,0.00,,,0.11,WUHU216HW,2013-02-21 18:07:00,
2013-02-21 12:12:00,57.8,50.9,29.67,North,0,0.4,3.4,78,0.00,,,0.11,WUHU216HW,2013-02-21 18:12:00,
2013-02-21 12:17:00,57.8,50.2,29.67,NNW,338,2.5,3.4,76,0.00,,,0.11,WUHU216HW,2013-02-21 18:17:00,
2013-02-21 12:22:00,57.6,50.4,29.66,North,0,1.1,3.4,77,0.00,,,0.11,WUHU216HW,2013-02-21 18:22:00,
2013-02-21 12:27:00,58.5,50.6,29.67,SW,225,2.7,3.1,75,0.00,,,0.11,WUHU216HW,2013-02-21 18:27:00,
2013-02-21 12:32:00,58.0,50.8,29.66,WNW,293,0.2,3.4,77,0.00,,,0.11,WUHU216HW,2013-02-21 18:32:00,
2013-02-21 12:37:00,58.1,51.3,29.66,WNW,293,2.0,3.4,78,0.00,,,0.11,WUHU216HW,2013-02-21 18:37:00,
2013-02-21 12:42:00,58.5,51.3,29.66,WSW,248,1.8,4.3,77,0.00,,,0.11,WUHU216HW,2013-02-21 18:42:00,
2013-02-21 12:47:00,59.0,51.1,29.66,SSE,158,2.5,5.8,75,0.00,,,0.11,WUHU216HW,2013-02-21 18:47:00,
2013-02-21 12:52:00,59.2,51.7,29.65,SSE,158,2.2,5.8,76,0.00,,,0.11,WUHU216HW,2013-02-21 18:52:00,
2013-02-21 12:57:00,60.1,51.5,29.65,SW,225,2.9,3.8,73,0.00,,,0.11,WUHU216HW,2013-02-21 18:57:00,
2013-02-21 13:02:00,60.5,51.8,29.65,SW,225,2.0,4.0,73,0.00,,,0.11,WUHU216HW,2013-02-21 19:02:00,
2013-02-21 13:07:00,62.1,52.3,29.64,SW,225,6.7,6.7,70,0.00,,,0.11,WUHU216HW,2013-02-21 19:07:00,
2013-02-21 13:12:00,62.5,51.0,29.64,WSW,248,3.6,6.7,66,0.00,,,0.11,WUHU216HW,2013-02-21 19:12:00,
2013-02-21 13:17:00,61.9,51.7,29.64,WSW,248,2.7,6.7,69,0.00,,,0.11,WUHU216HW,2013-02-21 19:17:00,
2013-02-21 13:22:00,61.9,49.6,29.64,West,270,5.1,7.8,64,0.00,,,0.11,WUHU216HW,2013-02-21 19:22:00,
2013-02-21 13:27:00,62.5,49.2,29.63,WSW,248,6.7,7.8,62,0.00,,,0.11,WUHU216HW,2013-02-21 19:27:00,
2013-02-21 13:33:00,63.2,49.5,29.63,SSW,203,5.1,6.7,61,0.00,,,0.11,WUHU216HW,2013-02-21 19:33:00,
2013-02-21 13:38:00,63.9,48.8,29.63,South,180,6.9,8.5,58,0.00,,,0.11,WUHU216HW,2013-02-21 19:38:00,
2013-02-21 13:43:00,64.4,49.2,29.63,WSW,248,4.7,8.5,58,0.00,,,0.11,WUHU216HW,2013-02-21 19:43:00,
2013-02-21 13:48:00,64.4,49.8,29.63,SW,225,6.3,7.6,59,0.00,,,0.11,WUHU216HW,2013-02-21 19:48:00,
2013-02-21 13:53:00,64.8,46.7,29.63,SW,225,7.2,9.2,52,0.00,,,0.11,WUHU216HW,2013-02-21 19:53:00,
2013-02-21 13:58:00,64.8,47.2,29.63,SW,225,5.4,10.5,53,0.00,,,0.11,WUHU216HW,2013-02-21 19:58:00,
2013-02-21 14:03:00,65.5,46.9,29.63,SSW,203,6.5,10.5,51,0.00,,,0.11,WUHU216HW,2013-02-21 20:03:00,
2013-02-21 14:08:00,65.5,45.3,29.62,WSW,248,5.8,9.8,48,0.00,,,0.11,WUHU216HW,2013-02-21 20:08:00,
2013-02-21 14:13:00,65.9,43.8,29.62,SW,225,2.9,9.8,45,0.00,,,0.11,WUHU216HW,2013-02-21 20:13:00,
2013-02-21 14:18:00,66.2,44.2,29.62,WSW,248,5.8,8.9,45,0.00,,,0.11,WUHU216HW,2013-02-21 20:18:00,
2013-02-21 14:23:00,66.1,42.2,29.62,WSW,248,8.3,8.9,42,0.00,,,0.11,WUHU216HW,2013-02-21 20:23:00,
2013-02-21 14:28:00,66.1,43.5,29.62,SSW,203,4.9,9.8,44,0.00,,,0.11,WUHU216HW,2013-02-21 20:28:00,
2013-02-21 14:33:00,66.4,44.4,29.62,WSW,248,4.0,9.8,45,0.00,,,0.11,WUHU216HW,2013-02-21 20:33:00,
2013-02-21 14:38:00,66.8,44.1,29.62,West,270,4.9,9.8,44,0.00,,,0.11,WUHU216HW,2013-02-21 20:38:00,
2013-02-21 14:43:00,66.8,43.5,29.62,SSW,203,6.9,6.9,43,0.00,,,0.11,WUHU216HW,2013-02-21 20:43:00,
2013-02-21 14:48:00,67.7,44.3,29.62,West,270,5.4,6.9,43,0.00,,,0.11,WUHU216HW,2013-02-21 20:48:00,
2013-02-21 14:53:00,67.9,45.1,29.62,SSW,203,6.0,7.6,44,0.00,,,0.11,WUHU216HW,2013-02-21 20:53:00,
2013-02-21 14:58:00,67.7,42.5,29.62,SSW,203,6.9,7.6,40,0.00,,,0.11,WUHU216HW,2013-02-21 20:58:00,
2013-02-21 15:03:00,67.5,44.1,29.62,WSW,248,8.1,8.1,43,0.00,,,0.11,WUHU216HW,2013-02-21 21:03:00,
2013-02-21 15:08:00,67.7,41.8,29.63,South,180,6.0,9.2,39,0.00,,,0.11,WUHU216HW,2013-02-21 21:08:00,
2013-02-21 15:13:00,67.3,41.5,29.63,SW,225,9.2,12.3,39,0.00,,,0.11,WUHU216HW,2013-02-21 21:13:00,
2013-02-21 15:18:00,67.3,41.5,29.63,SW,225,6.7,12.3,39,0.00,,,0.11,WUHU216HW,2013-02-21 21:18:00,
2013-02-21 15:24:00,67.3,41.5,29.63,West,270,4.7,8.9,39,0.00,,,0.11,WUHU216HW,2013-02-21 21:24:00,
2013-02-21 15:28:00,68.0,42.1,29.63,West,270,6.9,8.3,39,0.00,,,0.11,WUHU216HW,2013-02-21 21:28:00,
2013-02-21 15:34:00,67.5,41.6,29.63,SW,225,6.3,12.3,39,0.00,,,0.11,WUHU216HW,2013-02-21 21:34:00,
2013-02-21 15:39:00,68.0,41.4,29.63,SW,225,7.6,12.3,38,0.00,,,0.11,WUHU216HW,2013-02-21 21:39:00,
2013-02-21 15:44:00,68.6,41.9,29.63,SSW,203,7.8,9.4,38,0.00,,,0.11,WUHU216HW,2013-02-21 21:44:00,
2013-02-21 15:49:00,68.2,43.0,29.64,West,270,7.2,9.4,40,0.00,,,0.11,WUHU216HW,2013-02-21 21:49:00,
2013-02-21 15:54:00,68.4,42.4,29.64,WSW,248,4.9,8.9,39,0.00,,,0.11,WUHU216HW,2013-02-21 21:54:00,
2013-02-21 15:59:00,69.1,41.6,29.64,SW,225,6.3,6.5,37,0.00,,,0.11,WUHU216HW,2013-02-21 21:59:00,
2013-02-21 16:04:00,69.3,44.0,29.64,West,270,3.8,6.9,40,0.00,,,0.11,WUHU216HW,2013-02-21 22:04:00,
2013-02-21 16:09:00,69.1,42.3,29.64,SSW,203,4.0,6.9,38,0.00,,,0.11,WUHU216HW,2013-02-21 22:09:00,
2013-02-21 16:14:00,69.5,42.7,29.64,SSW,203,5.1,7.2,38,0.00,,,0.11,WUHU216HW,2013-02-21 22:14:00,
2013-02-21 16:19:00,69.1,43.1,29.64,WSW,248,5.4,7.2,39,0.00,,,0.11,WUHU216HW,2013-02-21 22:19:00,
2013-02-21 16:24:00,69.1,42.3,29.64,SW,225,3.4,6.5,38,0.00,,,0.11,WUHU216HW,2013-02-21 22:24:00,
2013-02-21 16:29:00,69.5,43.4,29.64,SW,225,3.4,7.4,39,0.00,,,0.11,WUHU216HW,2013-02-21 22:29:00,
2013-02-21 16:34:00,69.5,42.0,29.64,WSW,248,4.9,7.4,37,0.00,,,0.11,WUHU216HW,2013-02-21 22:34:00,
2013-02-21 16:39:00,69.5,42.7,29.64,SW,225,3.4,6.3,38,0.00,,,0.11,WUHU216HW,2013-02-21 22:39:00,
2013-02-21 16:44:00,70.0,41.7,29.64,West,270,2.0,5.8,36,0.00,,,0.11,WUHU216HW,2013-02-21 22:44:00,
2013-02-21 16:49:00,70.2,42.6,29.64,WSW,248,2.9,5.8,37,0.00,,,0.11,WUHU216HW,2013-02-21 22:49:00,
2013-02-21 16:54:00,69.7,42.9,29.65,SW,225,4.0,5.4,38,0.00,,,0.11,WUHU216HW,2013-02-21 22:54:00,
2013-02-21 16:59:00,68.9,42.9,29.65,SW,225,4.3,5.4,39,0.00,,,0.11,WUHU216HW,2013-02-21 22:59:00,
2013-02-21 17:04:00,69.1,43.1,29.65,WSW,248,1.8,4.7,39,0.00,,,0.11,WUHU216HW,2013-02-21 23:04:00,
2013-02-21 17:09:00,68.8,42.8,29.66,SW,225,3.8,3.8,39,0.00,,,0.11,WUHU216HW,2013-02-21 23:09:00,
2013-02-21 17:14:00,68.4,41.7,29.66,WSW,248,1.8,3.8,38,0.00,,,0.11,WUHU216HW,2013-02-21 23:14:00,
2013-02-21 17:19:00,68.4,41.7,29.66,SW,225,3.4,3.8,38,0.00,,,0.11,WUHU216HW,2013-02-21 23:19:00,
2013-02-21 17:24:00,68.9,42.2,29.66,WSW,248,2.5,3.8,38,0.00,,,0.11,WUHU216HW,2013-02-21 23:24:00,
2013-02-21 17:29:00,68.8,42.8,29.67,WNW,293,0.9,3.4,39,0.00,,,0.11,WUHU216HW,2013-02-21 23:29:00,
2013-02-21 17:34:00,69.3,43.2,29.66,NW,315,0.7,2.5,39,0.00,,,0.11,WUHU216HW,2013-02-21 23:34:00,
2013-02-21 17:39:00,69.8,44.5,29.66,WSW,248,0.0,1.8,40,0.00,,,0.11,WUHU216HW,2013-02-21 23:39:00,
2013-02-21 17:44:00,71.6,44.7,29.66,West,270,1.3,1.3,38,0.00,,,0.11,WUHU216HW,2013-02-21 23:44:00,
2013-02-21 17:49:00,71.1,44.8,29.67,WNW,293,0.4,1.3,39,0.00,,,0.11,WUHU216HW,2013-02-21 23:49:00,
2013-02-21 17:54:00,70.7,44.6,29.67,WNW,293,0.0,1.1,39,0.00,,,0.11,WUHU216HW,2013-02-21 23:54:00,
2013-02-21 17:59:00,69.7,43.6,29.67,WNW,293,0.0,0.0,39,0.00,,,0.11,WUHU216HW,2013-02-21 23:59:00,
2013-02-21 18:04:00,67.7,41.8,29.67,WSW,248,0.0,0.0,39,0.00,,,0.11,WUHU216HW,2013-02-22 00:04:00,
2013-02-21 18:09:00,65.7,42.5,29.68,NW,315,0.9,0.9,43,0.00,,,0.11,WUHU216HW,2013-02-22 00:09:00,
2013-02-21 18:14:00,62.6,41.4,29.68,NW,315,0.0,0.9,46,0.00,,,0.11,WUHU216HW,2013-02-22 00:14:00,
2013-02-21 18:19:00,60.8,41.0,29.69,NW,315,0.0,0.4,48,0.00,,,0.11,WUHU216HW,2013-02-22 00:19:00,
2013-02-21 18:24:00,59.6,41.0,29.69,NW,315,0.0,0.4,50,0.00,,,0.11,WUHU216HW,2013-02-22 00:24:00,
2013-02-21 18:29:00,58.3,40.3,29.69,NW,315,0.0,0.0,51,0.00,,,0.11,WUHU216HW,2013-02-22 00:29:00,
2013-02-21 18:34:00,57.2,40.3,29.70,West,270,0.4,0.4,53,0.00,,,0.11,WUHU216HW,2013-02-22 00:34:00,
2013-02-21 18:39:00,56.9,40.4,29.70,West,270,0.0,0.4,54,0.00,,,0.11,WUHU216HW,2013-02-22 00:39:00,
2013-02-21 18:45:00,55.8,39.3,29.70,WSW,248,0.2,0.4,54,0.00,,,0.11,WUHU216HW,2013-02-22 00:45:00,
2013-02-21 18:50:00,55.3,39.7,29.71,NW,315,0.0,0.4,56,0.00,,,0.11,WUHU216HW,2013-02-22 00:50:00,
2013-02-21 18:55:00,54.7,39.7,29.71,NNW,338,0.0,0.7,57,0.00,,,0.11,WUHU216HW,2013-02-22 00:55:00,
2013-02-21 19:00:00,53.8,38.9,29.71,NNW,338,0.0,0.7,57,0.00,,,0.11,WUHU216HW,2013-02-22 01:00:00,
2013-02-21 19:05:00,52.9,39.8,29.72,West,270,0.2,0.7,61,0.00,,,0.11,WUHU216HW,2013-02-22 01:05:00,
2013-02-21 19:10:00,51.8,39.6,29.72,WNW,293,0.0,0.7,63,0.00,,,0.11,WUHU216HW,2013-02-22 01:10:00,
2013-02-21 19:15:00,51.1,39.3,29.72,WNW,293,0.0,0.4,64,0.00,,,0.11,WUHU216HW,2013-02-22 01:15:00,
2013-02-21 19:20:00,50.6,40.1,29.73,WSW,248,0.7,0.9,67,0.00,,,0.11,WUHU216HW,2013-02-22 01:20:00,
2013-02-21 19:25:00,50.0,39.5,29.73,SW,225,0.7,1.1,67,0.00,,,0.11,WUHU216HW,2013-02-22 01:25:00,
2013-02-21 19:30:00,49.3,40.0,29.73,WSW,248,0.7,1.1,70,0.00,,,0.11,WUHU216HW,2013-02-22 01:30:00,
2013-02-21 19:35:00,49.1,39.0,29.73,WSW,248,0.0,0.7,68,0.00,,,0.11,WUHU216HW,2013-02-22 01:35:00,
2013-02-21 19:40:00,48.8,39.1,29.74,West,270,0.0,0.7,69,0.00,,,0.11,WUHU216HW,2013-02-22 01:40:00,
2013-02-21 19:45:00,48.6,39.6,29.74,WNW,293,0.0,0.7,71,0.00,,,0.11,WUHU216HW,2013-02-22 01:45:00,
2013-02-21 19:50:00,48.6,39.2,29.74,WSW,248,0.7,0.9,70,0.00,,,0.11,WUHU216HW,2013-02-22 01:50:00,
2013-02-21 19:55:00,47.9,40.0,29.74,SW,225,1.8,1.8,74,0.00,,,0.11,WUHU216HW,2013-02-22 01:55:00,
2013-02-21 20:00:00,47.2,39.6,29.75,WSW,248,1.1,1.8,75,0.00,,,0.11,WUHU216HW,2013-02-22 02:00:00,
2013-02-21 20:05:00,47.3,39.4,29.75,WSW,248,0.9,1.8,74,0.00,,,0.11,WUHU216HW,2013-02-22 02:05:00,
2013-02-21 20:10:00,47.2,39.0,29.75,NW,315,0.0,1.6,73,0.00,,,0.11,WUHU216HW,2013-02-22 02:10:00,
2013-02-21 20:15:00,47.2,39.2,29.75,NW,315,0.2,1.6,74,0.00,,,0.11,WUHU216HW,2013-02-22 02:15:00,
2013-02-21 20:20:00,46.8,39.3,29.76,SW,225,0.0,0.7,75,0.00,,,0.11,WUHU216HW,2013-02-22 02:20:00,
2013-02-21 20:25:00,46.6,38.8,29.76,NW,315,0.0,0.7,74,0.00,,,0.11,WUHU216HW,2013-02-22 02:25:00,
2013-02-21 20:30:00,46.8,38.6,29.76,West,270,0.0,0.2,73,0.00,,,0.11,WUHU216HW,2013-02-22 02:30:00,
2013-02-21 20:35:00,46.4,38.6,29.76,West,270,0.0,0.0,74,0.00,,,0.11,WUHU216HW,2013-02-22 02:35:00,
2013-02-21 20:40:00,45.9,38.4,29.77,WSW,248,0.4,0.4,75,0.00,,,0.11,WUHU216HW,2013-02-22 02:40:00,
2013-02-21 20:45:00,46.1,38.3,29.76,WSW,248,0.0,0.7,74,0.00,,,0.11,WUHU216HW,2013-02-22 02:45:00,
2013-02-21 20:50:00,46.1,38.6,29.77,WSW,248,0.0,0.7,75,0.00,,,0.11,WUHU216HW,2013-02-22 02:50:00,
2013-02-21 20:55:00,45.7,38.3,29.77,WSW,248,0.0,0.0,75,0.00,,,0.11,WUHU216HW,2013-02-22 02:55:00,
2013-02-21 21:00:00,45.4,37.5,29.77,WSW,248,0.0,0.4,74,0.00,,,0.11,WUHU216HW,2013-02-22 03:00:00,
2013-02-21 21:05:00,44.5,37.4,29.77,SE,135,2.0,2.0,76,0.00,,,0.11,WUHU216HW,2013-02-22 03:05:00,
2013-02-21 21:10:00,43.0,37.5,29.78,SE,135,1.1,2.2,81,0.00,,,0.11,WUHU216HW,2013-02-22 03:10:00,
2013-02-21 21:15:00,42.7,37.2,29.78,SE,135,0.4,2.7,81,0.00,,,0.11,WUHU216HW,2013-02-22 03:15:00,
2013-02-21 21:20:00,42.5,36.4,29.78,SSE,158,0.0,2.7,79,0.00,,,0.11,WUHU216HW,2013-02-22 03:20:00,
2013-02-21 21:25:00,43.0,36.9,29.79,SSE,158,0.0,0.4,79,0.00,,,0.11,WUHU216HW,2013-02-22 03:25:00,
2013-02-21 21:30:00,43.6,37.2,29.79,SW,225,0.0,0.0,78,0.00,,,0.11,WUHU216HW,2013-02-22 03:30:00,
2013-02-21 21:35:00,43.9,38.2,29.79,WSW,248,1.1,1.1,80,0.00,,,0.11,WUHU216HW,2013-02-22 03:35:00,
2013-02-21 21:41:00,43.7,37.6,29.80,West,270,0.4,1.1,79,0.00,,,0.11,WUHU216HW,2013-02-22 03:41:00,
2013-02-21 21:46:00,43.6,37.2,29.80,West,270,0.0,1.1,78,0.00,,,0.11,WUHU216HW,2013-02-22 03:46:00,
2013-02-21 21:51:00,42.8,37.4,29.80,SW,225,0.9,1.1,81,0.00,,,0.11,WUHU216HW,2013-02-22 03:51:00,
2013-02-21 21:56:00,42.7,36.5,29.81,SSW,203,0.4,1.1,79,0.00,,,0.11,WUHU216HW,2013-02-22 03:56:00,
2013-02-21 22:01:00,42.7,37.2,29.80,SW,225,0.7,0.7,81,0.00,,,0.11,WUHU216HW,2013-02-22 04:01:00,
2013-02-21 22:06:00,42.5,37.0,29.81,WNW,293,0.9,1.1,81,0.00,,,0.11,WUHU216HW,2013-02-22 04:06:00,
2013-02-21 22:11:00,42.1,37.0,29.80,WNW,293,0.9,1.3,82,0.00,,,0.11,WUHU216HW,2013-02-22 04:11:00,
2013-02-21 22:16:00,41.8,36.9,29.81,WNW,293,0.4,1.3,83,0.00,,,0.11,WUHU216HW,2013-02-22 04:16:00,
2013-02-21 22:21:00,41.8,36.9,29.82,West,270,0.4,1.1,83,0.00,,,0.11,WUHU216HW,2013-02-22 04:21:00,
2013-02-21 22:26:00,43.9,37.5,29.82,WNW,293,0.4,1.3,78,0.00,,,0.11,WUHU216HW,2013-02-22 04:26:00,
2013-02-21 22:31:00,47.9,39.2,29.82,WNW,293,0.4,2.5,72,0.00,,,0.11,WUHU216HW,2013-02-22 04:31:00,
2013-02-21 22:36:00,50.0,39.1,29.83,West,270,1.1,2.5,66,0.00,,,0.11,WUHU216HW,2013-02-22 04:36:00,
2013-02-21 22:41:00,50.8,39.0,29.83,SW,225,1.3,2.5,64,0.00,,,0.11,WUHU216HW,2013-02-22 04:41:00,
2013-02-21 22:46:00,50.9,39.2,29.83,NW,315,1.8,2.5,64,0.00,,,0.11,WUHU216HW,2013-02-22 04:46:00,
2013-02-21 22:51:00,50.9,39.2,29.84,North,0,2.9,5.4,64,0.00,,,0.11,WUHU216HW,2013-02-22 04:51:00,
2013-02-21 22:56:00,50.8,39.0,29.85,NNW,338,5.6,5.6,64,0.00,,,0.11,WUHU216HW,2013-02-22 04:56:00,
2013-02-21 23:00:00,50.6,39.3,29.85,NNW,338,6.9,6.9,65,0.00,,,0.11,WUHU216HW,2013-02-22 05:00:00,
2013-02-21 23:05:00,50.0,38.7,29.85,NNW,338,8.5,8.5,65,0.00,,,0.11,WUHU216HW,2013-02-22 05:05:00,
2013-02-21 23:10:00,49.7,38.8,29.85,NW,315,5.1,8.5,66,0.00,,,0.11,WUHU216HW,2013-02-22 05:10:00,
2013-02-21 23:15:00,49.1,38.3,29.85,NNW,338,3.6,7.6,66,0.00,,,0.11,WUHU216HW,2013-02-22 05:15:00,
2013-02-21 23:20:00,48.8,38.3,29.85,North,0,6.3,7.6,67,0.00,,,0.11,WUHU216HW,2013-02-22 05:20:00,
2013-02-21 23:26:00,48.6,38.5,29.85,NNW,338,6.3,6.9,68,0.00,,,0.11,WUHU216HW,2013-02-22 05:26:00,
2013-02-21 23:31:00,48.2,38.2,29.85,WNW,293,7.4,7.4,68,0.00,,,0.11,WUHU216HW,2013-02-22 05:31:00,
2013-02-21 23:36:00,47.9,38.2,29.85,NNW,338,5.4,7.4,69,0.00,,,0.11,WUHU216HW,2013-02-22 05:36:00,
2013-02-21 23:41:00,47.7,38.0,29.86,NNW,338,2.5,5.4,69,0.00,,,0.11,WUHU216HW,2013-02-22 05:41:00,
2013-02-21 23:46:00,47.3,38.1,29.85,NNW,338,4.3,7.8,70,0.00,,,0.11,WUHU216HW,2013-02-22 05:46:00,
2013-02-21 23:51:00,47.2,38.3,29.85,North,0,3.8,7.8,71,0.00,,,0.11,WUHU216HW,2013-02-22 05:51:00,
2013-02-21 23:56:00,47.0,38.1,29.86,North,0,1.8,5.1,71,0.00,,,0.11,WUHU216HW,2013-02-22 05:56:00,